Previsão horária em Plonia

Hoje, 3 Março, Quarta-feira

Tempo Temperatura Precipitação Vento Pressão Humidade
00:00 +6°C° 0 mm 1 m/s 758 mmHg 77%
01:00 +6°C° 0 mm 1 m/s 758 mmHg 78%
02:00 +6°C° 0 mm 1 m/s 757 mmHg 78%
03:00 +5°C° 0 mm 1 m/s 757 mmHg 77%
04:00 +5°C° 0 mm 1 m/s 757 mmHg 77%
05:00 +5°C° 0 mm 1 m/s 757 mmHg 76%
06:00 +5°C° 0 mm 1 m/s 756 mmHg 75%
07:00 +4°C° 0 mm 2 m/s 756 mmHg 73%
08:00 +6°C° 0 mm 2 m/s 756 mmHg 66%
09:00 +8°C° 0 mm 2 m/s 756 mmHg 59%
10:00 +10°C° 0 mm 2 m/s 756 mmHg 51%
11:00 +12°C° 0 mm 2 m/s 755 mmHg 47%
12:00 +12°C° 0 mm 3 m/s 755 mmHg 43%
13:00 +14°C° 0 mm 3 m/s 754 mmHg 39%
14:00 +14°C° 0 mm 3 m/s 754 mmHg 41%
15:00 +13°C° 0 mm 4 m/s 753 mmHg 44%
16:00 +13°C° 0 mm 4 m/s 752 mmHg 46%
17:00 +11°C° 0 mm 4 m/s 752 mmHg 52%
18:00 +10°C° 0 mm 4 m/s 752 mmHg 58%
19:00 +7°C° 0 mm 4 m/s 752 mmHg 64%
20:00 +7°C° 0 mm 4 m/s 752 mmHg 67%
21:00 +7°C° 0 mm 3 m/s 751 mmHg 70%
22:00 +5°C° 0 mm 3 m/s 751 mmHg 73%
23:00 +5°C° 0 mm 3 m/s 751 mmHg 74%

Amanhã, 4 Março, Quinta-feira

Tempo Temperatura Precipitação Vento Pressão Humidade
00:00 +5°C° 0 mm 3 m/s 750 mmHg 74%
01:00 +5°C° 0 mm 3 m/s 750 mmHg 75%
02:00 +4°C° 0 mm 3 m/s 749 mmHg 75%
03:00 +4°C° 0 mm 3 m/s 749 mmHg 75%
04:00 +4°C° 0 mm 3 m/s 748 mmHg 75%
05:00 +4°C° 0 mm 3 m/s 748 mmHg 76%
06:00 +4°C° 0 mm 3 m/s 748 mmHg 77%
07:00 +4°C° 0 mm 3 m/s 747 mmHg 78%
08:00 +5°C° 0 mm 3 m/s 747 mmHg 73%
09:00 +8°C° 0 mm 3 m/s 747 mmHg 68%
10:00 +9°C° 0 mm 3 m/s 746 mmHg 63%
11:00 +10°C° 0 mm 3 m/s 746 mmHg 61%
12:00 +11°C° 0 mm 3 m/s 746 mmHg 59%
13:00 +12°C° 0 mm 4 m/s 745 mmHg 57%
14:00 +12°C° 0.2 mm 4 m/s 745 mmHg 63%
15:00 +11°C° 0.2 mm 3 m/s 744 mmHg 69%
16:00 +10°C° 0.2 mm 3 m/s 744 mmHg 75%
17:00 +10°C° 0.2 mm 3 m/s 743 mmHg 77%
18:00 +9°C° 0.2 mm 3 m/s 743 mmHg 80%
19:00 +9°C° 0.2 mm 2 m/s 743 mmHg 82%
20:00 +8°C° 1.4 mm 3 m/s 743 mmHg 84%
21:00 +7°C° 1.4 mm 3 m/s 743 mmHg 87%
22:00 +6°C° 1.4 mm 4 m/s 743 mmHg 89%
23:00 +5°C° 1.3 mm 4 m/s 743 mmHg 90%

Depois de amanhã, 5 Março, Sexta-feira

Tempo Temperatura Precipitação Vento Pressão Humidade
00:00 +4°C° 1.3 mm 4 m/s 743 mmHg 91%
01:00 +3°C° 1.3 mm 4 m/s 743 mmHg 92%
02:00 +3°C° 0.1 mm 4 m/s 744 mmHg 92%
03:00 +1°C° 0.1 mm 4 m/s 744 mmHg 92%
04:00 +2°C° 0.1 mm 3 m/s 744 mmHg 92%
05:00 0°C° 0.2 mm 4 m/s 744 mmHg 92%
06:00 0°C° 0.2 mm 4 m/s 745 mmHg 93%
07:00 -1°C° 0.2 mm 4 m/s 746 mmHg 93%
08:00 -1°C° 0.2 mm 5 m/s 746 mmHg 86%
09:00 -1°C° 0.2 mm 5 m/s 747 mmHg 78%
10:00 -1°C° 0.2 mm 5 m/s 747 mmHg 71%
11:00 0°C° 0 mm 5 m/s 748 mmHg 64%
12:00 +1°C° 0 mm 5 m/s 748 mmHg 57%
13:00 +2°C° 0 mm 5 m/s 749 mmHg 50%
14:00 +1°C° 0 mm 5 m/s 749 mmHg 49%
15:00 +1°C° 0 mm 5 m/s 749 mmHg 49%
16:00 +1°C° 0 mm 5 m/s 749 mmHg 48%
17:00 0°C° 0 mm 4 m/s 750 mmHg 52%
18:00 +1°C° 0 mm 3 m/s 751 mmHg 57%
19:00 0°C° 0 mm 3 m/s 752 mmHg 61%
20:00 +1°C° 0 mm 2 m/s 752 mmHg 63%
21:00 -1°C° 0 mm 2 m/s 753 mmHg 64%
22:00 -1°C° 0 mm 2 m/s 753 mmHg 66%
23:00 -1°C° 0 mm 2 m/s 754 mmHg 67%

6 Março, Sábado

Tempo Temperatura Precipitação Vento Pressão Humidade
00:00 -1°C° 0 mm 2 m/s 754 mmHg 68%
01:00 -1°C° 0 mm 2 m/s 754 mmHg 69%
02:00 -1°C° 0 mm 2 m/s 755 mmHg 70%
03:00 -2°C° 0 mm 3 m/s 755 mmHg 70%
04:00 -2°C° 0 mm 3 m/s 755 mmHg 71%
05:00 -2°C° 0 mm 3 m/s 755 mmHg 72%
06:00 -2°C° 0 mm 3 m/s 756 mmHg 72%
07:00 -2°C° 0 mm 3 m/s 756 mmHg 73%
08:00 -1°C° 0 mm 3 m/s 757 mmHg 69%
09:00 -1°C° 0 mm 3 m/s 757 mmHg 64%
10:00 0°C° 0 mm 3 m/s 757 mmHg 60%
11:00 +1°C° 0 mm 3 m/s 757 mmHg 55%
12:00 +2°C° 0 mm 3 m/s 757 mmHg 50%
13:00 +2°C° 0 mm 3 m/s 757 mmHg 45%
14:00 +2°C° 0 mm 3 m/s 757 mmHg 45%
15:00 +2°C° 0 mm 3 m/s 756 mmHg 46%
16:00 +2°C° 0 mm 3 m/s 756 mmHg 46%
17:00 +2°C° 0 mm 2 m/s 756 mmHg 50%
18:00 +1°C° 0 mm 2 m/s 756 mmHg 53%
19:00 +1°C° 0 mm 1 m/s 756 mmHg 57%
20:00 +1°C° 0 mm 1 m/s 756 mmHg 58%
21:00 -1°C° 0 mm 2 m/s 756 mmHg 59%
22:00 -1°C° 0 mm 2 m/s 756 mmHg 59%
23:00 -1°C° 0 mm 2 m/s 756 mmHg 59%

7 Março, Domingo

Tempo Temperatura Precipitação Vento Pressão Humidade
00:00 -1°C° 0 mm 3 m/s 756 mmHg 59%
01:00 -2°C° 0 mm 3 m/s 755 mmHg 59%
02:00 -2°C° 0 mm 3 m/s 755 mmHg 59%
03:00 -2°C° 0 mm 3 m/s 754 mmHg 58%
04:00 -2°C° 0 mm 3 m/s 753 mmHg 57%
05:00 -2°C° 0 mm 3 m/s 753 mmHg 56%
06:00 -2°C° 0 mm 3 m/s 753 mmHg 55%
07:00 -2°C° 0 mm 3 m/s 753 mmHg 54%
08:00 -1°C° 0 mm 4 m/s 752 mmHg 48%
09:00 0°C° 0 mm 4 m/s 752 mmHg 43%
10:00 +3°C° 0 mm 4 m/s 752 mmHg 37%
11:00 +3°C° 0 mm 4 m/s 751 mmHg 37%
12:00 +4°C° 0 mm 4 m/s 751 mmHg 36%
13:00 +5°C° 0 mm 4 m/s 750 mmHg 35%
14:00 +5°C° 0 mm 4 m/s 750 mmHg 37%
15:00 +5°C° 0 mm 3 m/s 749 mmHg 39%
16:00 +5°C° 0 mm 3 m/s 749 mmHg 41%
17:00 +3°C° 0 mm 3 m/s 749 mmHg 47%
18:00 +3°C° 0 mm 2 m/s 748 mmHg 52%
19:00 +2°C° 0 mm 2 m/s 748 mmHg 58%
20:00 +1°C° 0 mm 2 m/s 748 mmHg 60%
21:00 +1°C° 0 mm 2 m/s 748 mmHg 62%
22:00 +1°C° 0 mm 1 m/s 748 mmHg 64%
23:00 +1°C° 0 mm 1 m/s 748 mmHg 64%

8 Março, Segunda-feira

Tempo Temperatura Precipitação Vento Pressão Humidade
00:00 +1°C° 0 mm 1 m/s 748 mmHg 65%
01:00 +1°C° 0 mm 1 m/s 747 mmHg 66%
02:00 +1°C° 0 mm 1 m/s 747 mmHg 66%
03:00 +1°C° 0 mm 1 m/s 747 mmHg 66%
04:00 +1°C° 0 mm 1 m/s 747 mmHg 65%
05:00 +1°C° 0 mm 1 m/s 747 mmHg 66%
06:00 +1°C° 0 mm 1 m/s 747 mmHg 67%
07:00 +1°C° 0 mm 1 m/s 747 mmHg 67%
08:00 +1°C° 0 mm 2 m/s 747 mmHg 69%
09:00 +1°C° 0 mm 2 m/s 747 mmHg 72%
10:00 +1°C° 0 mm 3 m/s 747 mmHg 74%
11:00 +1°C° 0.1 mm 3 m/s 747 mmHg 77%
12:00 +1°C° 0.1 mm 3 m/s 748 mmHg 81%
13:00 0°C° 0.1 mm 4 m/s 748 mmHg 84%
14:00 +1°C° 0.1 mm 3 m/s 748 mmHg 87%
15:00 +1°C° 0.1 mm 3 m/s 748 mmHg 89%
16:00 0°C° 0.1 mm 3 m/s 748 mmHg 91%
17:00 0°C° 0 mm 3 m/s 748 mmHg 87%
18:00 +1°C° 0 mm 2 m/s 749 mmHg 83%
19:00 -1°C° 0 mm 2 m/s 750 mmHg 79%
20:00 -1°C° 0 mm 2 m/s 750 mmHg 75%
21:00 -2°C° 0 mm 2 m/s 751 mmHg 71%
22:00 -2°C° 0 mm 2 m/s 751 mmHg 67%
23:00 -2°C° 0 mm 2 m/s 751 mmHg 68%
Mostrar mais

Necessitamos do seu Consentimento

A Meteoprog e os seus Fornecedores de Serviços podem armazenar e aceder a dados pessoais como cookies, identificadores do dispositivo ou outras tecnologias semelhantes existentes no seu dispositivo e processar estes dados para personalizar conteúdos e anúncios, assim como funcionalidades nas redes sociais e análise de tráfego.

  • Armazenar e/ou aceder a informações no seu dispositivo

    Os cookies, identificadores do dispositivo ou outras informações podem ser armazenados ou acedidos no seu dispositivo, para os fins acima indicados.

  • Anúncios e conteúdos personalizados, medição de anúncios e conteúdos, dados sobre o público-alvo e desenvolvimento de produtos

    Os anúncios e os conteúdos podem ser personalizados com base num perfil. Podem ser adicionados dados adicionais para uma maior personalização dos anúncios e dos conteúdos. A eficácia dos anúncios e dos conteúdos pode ser medida. Podem ser obtidas informações sobre o público que visualizou os anúncios e os conteúdos. Estes dados podem ser usados para desenvolver ou melhorar sistemas, softwares ou a experiência do utilizador.

Ao clicar em "Eu concordo”, permitirá o uso de cookies, identificadores do dispositivo e web beacons mencionados ou outras tecnologias semelhantes. As configurações do navegador do seu dispositivo podem ser alteradas.

Para certos fins, podem ser invocados interesses legítimos ao invés de consentimento. Pode ler mais informação sobre este assunto na nossa Política de Privacidade e Cookies.